Location: Clarence (historical)
(38.3903°N, 98.9965°W)
Time: 17:53:10
(UTC+00:00)

Daily predictions for brighter satellites

Satellite Brightness Start Highest point End
(mag) Time Altitude Azimuth Time Altitude Azimuth Time Altitude Azimuth
Cosmos 2237 4.2 12:03:17 12° NNW 12:08:35 63° WSW 12:14:11 10° S
Cosmos 1816 Rocket 4.4 12:02:59 10° NNW 12:09:12 66° W 12:15:19 10° S
Cosmos 2360 Rocket 2.3 12:05:02 12° NNW 12:10:07 57° WSW 12:15:39 10° S
Meteor 1-26 Rocket 4.2 12:04:36 10° N 12:10:16 88° E 12:15:45 10° S
FALCON 9 DEB 4.0 12:08:28 10° SSW 12:10:39 32° SE 12:12:51 10° ENE
PSLV R/B 4.3 12:08:18 10° N 12:11:58 37° WNW 12:15:41 10° SW
Helios 1A Rocket 2.9 12:08:21 10° NNE 12:12:27 83° ESE 12:16:29 10° SSW
STARLINK-67 4.1 12:13:21 20° SW 12:13:21 20° SW 12:15:19 10° S
Cosmos 1818 3.7 12:08:18 10° SSW 12:13:44 80° ESE 12:19:12 10° NNE
Starlink Launch 2 leader 3.6 12:13:46 10° SSW 12:16:06 40° SE 12:18:26 10° ENE
Cosmos 2237 Rocket 4.4 12:12:38 10° N 12:16:53 21° NE 12:21:05 10° ESE
SL-16 R/B 3.5 12:17:15 18° W 12:18:24 19° W 12:22:15 10° SW
STARLINK 1050 3.8 12:16:17 10° SSW 12:19:01 44° SE 12:21:46 10° ENE
Cosmos 1825 4.0 12:21:06 15° NW 12:21:06 15° NW 12:22:11 10° NNW
FALCON 9 DEB 3.4 12:17:05 10° SSW 12:19:24 43° SE 12:21:43 10° ENE
Starlink Launch 2 trailer 3.3 12:17:24 10° SSW 12:19:46 46° SE 12:22:09 10° ENE
COSMOS 2428 3.4 12:14:23 10° NNW 12:20:01 56° ENE 12:25:37 10° SE
STARLINK 1055 3.7 12:17:21 10° SSW 12:20:04 45° SE 12:22:47 10° ENE
METEOR-M 4.1 12:14:47 10° N 12:20:06 71° WNW 12:25:24 10° SSW
Tsikada Rocket 4.1 12:14:26 10° NNW 12:20:38 57° W 12:26:44 10° SSW
Cosmos 1606 3.0 12:17:33 10° NNW 12:21:12 45° W 12:24:51 10° SSW
STARLINK 1022 3.7 12:18:38 10° SSW 12:21:25 48° SE 12:24:13 10° ENE
STARLINK 1042 3.6 12:19:13 10° SSW 12:21:58 48° SE 12:24:44 10° ENE
FALCON 9 DEB 3.2 12:19:55 10° SSW 12:22:15 48° SE 12:24:38 10° ENE
STARLINK 1056 3.5 12:20:31 10° SSW 12:23:16 50° SE 12:26:01 10° ENE
Cosmos 2322 Rocket 3.4 12:21:33 17° WNW 12:23:36 20° W 12:27:39 10° SW
STARLINK 1054 3.5 12:21:39 10° SSW 12:24:25 52° SE 12:27:11 10° ENE
CZ-2C R/B 4.1 12:22:10 10° NNW 12:23:16 13° NW 12:23:16 13° NW
STARLINK 1062 3.4 12:22:37 10° SW 12:25:23 54° SE 12:28:11 10° ENE
Cosmos 494 Rocket 3.9 12:20:56 10° NNW 12:26:10 74° WSW 12:31:19 10° S
STARLINK 1053 3.3 12:24:10 10° SW 12:26:57 56° SE 12:29:45 10° ENE
SKYMED 2 4.0 12:22:57 10° SSW 12:27:02 40° W 12:31:07 10° NNW
Cosmos 1515 Rocket 4.3 12:23:40 10° NNW 12:27:27 30° W 12:31:14 10° SSW
STARLINK 1061 3.3 12:24:49 10° SW 12:27:38 58° SE 12:30:28 10° NE
Cosmos 1805 Rocket 3.5 12:23:28 10° S 12:27:47 86° W 12:32:08 10° N
STARLINK 1067 3.2 12:26:03 10° SW 12:28:51 60° SE 12:31:40 10° NE
Cosmos 1743 Rocket 4.3 12:25:21 10° SW 12:29:09 29° WNW 12:32:57 10° NNW
STARLINK-46 2.7 12:27:02 17° NW 12:29:11 84° NE 12:32:08 10° SE
Okean O Rocket 1.5 12:25:22 10° N 12:29:40 63° WNW 12:33:57 10° SSW
STARLINK 1058 3.1 12:27:06 10° SW 12:29:54 62° SE 12:32:44 10° NE
GPS 2-05 Rocket1 3.8 12:28:26 10° SW 12:30:47 29° SSE 12:33:09 10° ESE
STARLINK 1043 3.0 12:28:12 10° SW 12:31:02 65° SE 12:33:54 10° NE
Cosmos 2228 Rocket 3.4 12:27:00 10° NNW 12:31:22 45° W 12:35:43 10° SSW
STARLINK 1065 3.0 12:29:08 10° SW 12:31:57 66° SE 12:34:49 10° NE
STARLINK 1063 2.9 12:30:30 10° SW 12:33:21 69° SE 12:36:12 10° NE
SJ-7 4.4 12:29:26 10° NNE 12:33:34 89° W 12:37:37 10° SSW
STARLINK 1027 2.9 12:30:58 10° SW 12:33:49 70° SE 12:36:42 10° NE
STARLINK 1028 2.9 12:31:11 10° SW 12:34:03 71° SE 12:36:55 10° NE
STARLINK 1021 2.9 12:31:22 10° SW 12:34:13 71° SE 12:37:07 10° NE
STARLINK 1064 2.9 12:31:25 10° SW 12:34:16 71° SE 12:37:08 10° NE
STARLINK 1019 2.9 12:31:36 10° SW 12:34:28 72° SE 12:37:20 10° NE
STARLINK 1012 2.9 12:31:47 10° SW 12:34:39 72° SE 12:37:32 10° NE
STARLINK 1010 2.8 12:32:00 10° SW 12:34:51 73° SE 12:37:44 10° NE
STARLINK 1026 2.8 12:32:17 10° SW 12:35:08 74° SE 12:38:01 10° NE
STARLINK 1013 2.8 12:32:31 10° SW 12:35:23 74° SE 12:38:15 10° NE
STARLINK 1041 2.8 12:32:37 10° SW 12:35:28 74° SE 12:38:19 10° NE
STARLINK 1034 2.8 12:32:45 10° SW 12:35:32 74° SE 12:38:21 10° NE
STARLINK 1009 2.8 12:32:45 10° SW 12:35:37 75° SE 12:38:30 10° NE
FENGYUN 3A 3.8 12:30:23 10° N 12:35:38 54° WNW 12:40:52 10° SSW
STARLINK 1015 2.8 12:32:49 10° SW 12:35:41 75° SE 12:38:34 10° NE
ATLAS 2AS CENTAUR R/B 3.8 12:30:47 12° WNW 12:35:42 24° WSW 12:40:59 10° SSW
STARLINK 1016 2.8 12:33:02 10° SW 12:35:54 75° SE 12:38:47 10° NE
STARLINK 1008 2.8 12:33:15 10° SW 12:36:07 76° SE 12:39:00 10° NE
STARLINK 1014 2.8 12:33:25 10° SW 12:36:17 76° SE 12:39:10 10° NE
STARLINK 1038 2.8 12:33:38 10° SW 12:36:28 77° SE 12:39:20 10° NE
STARLINK 1025 2.8 12:33:37 10° SW 12:36:30 77° SE 12:39:23 10° NE
STARLINK 1045 2.8 12:33:45 10° SW 12:36:37 77° SE 12:39:29 10° NE
STARLINK 1017 2.8 12:33:51 10° SW 12:36:44 77° SE 12:39:37 10° NE
STARLINK 1023 2.8 12:34:03 10° SW 12:36:56 78° SE 12:39:49 10° NE
STARLINK 1007 2.7 12:34:16 10° SW 12:37:07 78° SE 12:40:01 10° NE
STARLINK 1048 2.7 12:34:28 10° SW 12:37:20 79° SE 12:40:14 10° NE
STARLINK 1049 2.7 12:34:37 10° SW 12:37:29 79° SE 12:40:23 10° NE
STARLINK 1051 2.7 12:34:50 10° SW 12:37:42 79° SE 12:40:36 10° NE
STARLINK 1046 2.7 12:34:53 10° SW 12:37:44 79° SE 12:40:37 10° NE
STARLINK 1068 2.7 12:34:57 10° SW 12:37:49 80° SE 12:40:43 10° NE
STARLINK 1037 2.7 12:35:03 10° SW 12:37:56 80° SE 12:40:49 10° NE
STARLINK 1059 2.7 12:35:17 10° SW 12:38:10 81° SE 12:41:03 10° NE
STARLINK 1057 2.7 12:35:29 10° SW 12:38:22 81° SE 12:41:15 10° NE
STARLINK 1052 2.7 12:35:43 10° SW 12:38:35 81° SE 12:41:29 10° NE
STARLINK 1039 2.7 12:36:02 10° SW 12:38:54 82° SE 12:41:47 10° NE
STARLINK 1029 2.7 12:36:05 10° SW 12:38:58 82° SE 12:41:52 10° NE
STARLINK 1060 2.7 12:36:20 10° SW 12:39:13 83° SE 12:42:07 10° NE
STARLINK 1030 2.7 12:36:31 10° SW 12:39:24 83° SE 12:42:17 10° NE
STARLINK 1020 2.7 12:36:41 10° SW 12:39:35 84° SE 12:42:29 10° NE
STARLINK 1033 2.6 12:37:25 10° SW 12:40:17 86° SE 12:43:10 10° NE
STARLINK 1031 2.6 12:37:33 10° SW 12:40:25 86° SE 12:43:19 10° NE
STARLINK 1024 2.7 12:37:47 10° SW 12:40:40 87° SE 12:43:35 10° NE
STARLINK 1035 2.7 12:37:57 10° SW 12:40:52 87° SE 12:43:47 10° NE
STARLINK 1047 2.6 12:38:03 10° SW 12:40:55 87° SE 12:43:49 10° NE
STARLINK 1032 2.6 12:38:07 10° SW 12:41:01 87° SE 12:43:55 10° NE
STARLINK 1011 2.6 12:38:24 10° SW 12:41:16 88° SE 12:44:10 10° NE
STARLINK 1036 2.6 12:38:35 10° SW 12:41:28 88° SE 12:44:23 10° NE
RESURS DK-1 3.7 12:39:01 10° N 12:42:56 40° ENE 12:46:50 10° SE
Cosmos 1269 Rocket 4.1 12:37:48 10° NNW 12:43:02 61° WSW 12:48:13 10° S
Delta 2 Rocket 4.2 12:39:02 10° W 12:43:16 49° SSW 12:48:04 10° ESE
Cosmos 1633 2.5 12:43:49 10° S 12:47:25 84° W 12:51:05 10° N
Lacrosse 5 rocket 1.0 12:43:56 10° NW 12:47:32 81° NE 12:51:07 10° SE
Cosmos 2233 Rocket 4.5 12:43:04 10° SW 12:48:52 39° WNW 12:54:45 10° N
Cosmos 1633 Rocket 3.4 12:47:43 10° S 12:52:02 73° E 12:56:24 10° NNE
Cosmos 1315 Rocket 2.8 12:48:51 10° NNW 12:52:54 73° W 12:56:59 10° S
Sich 1 3.0 12:48:56 10° SSW 12:53:07 61° W 12:57:23 10° N
Meteor 1-10 Rocket 4.5 12:50:37 10° N 12:56:17 79° E 13:02:01 10° SSE
Cosmos 2219 Rocket 2.2 12:52:26 10° NNW 12:58:05 71° WSW 13:03:43 10° SSE
Timation 2 Rocket 4.4 12:53:19 10° SW 12:58:52 38° WNW 13:04:24 10° N
Cosmos 2322 4.3 12:55:06 10° NW 13:00:15 37° WSW 13:05:21 10° S
H-2A R/B 2.7 12:56:48 10° N 13:00:30 89° WNW 13:04:12 10° SSW
Cosmos 2219 3.3 12:55:43 10° SSW 13:01:23 89° SE 13:07:04 10° NNE
CZ-4B R/B 3.7 12:56:43 10° N 13:01:45 39° WNW 13:06:50 10° SW
Cosmos 2322 Rocket 3.7 23:42:40 10° SE 23:46:05 17° E 23:49:30 10° ENE
Cosmos 2297 Rocket 3.6 23:43:48 10° NW 23:49:08 44° WSW 23:54:27 10° S
Cosmos 2227 Rocket 3.5 23:44:59 10° NW 23:50:23 47° WSW 23:55:45 10° S
SL-8 R/B 3.9 23:45:35 10° WSW 23:50:24 76° NNW 23:55:16 10° NE
Cosmos 158 Rocket 4.1 23:45:35 10° S 23:50:47 60° ESE 23:55:52 10° NNE
Envisat 3.8 23:46:31 10° SE 23:50:48 28° ENE 23:55:06 10° N
Cosmos 1470 Rocket 4.4 23:47:30 10° NNE 23:51:27 30° ENE 23:55:22 10° SE
Hubble Space Telescope 3.0 23:52:44 10° SSW 23:55:26 17° S 23:58:09 10° SE
